Theta_e
335 334 332 332 332 330 331 329 322 315 318 322 325 330 332 333 333 333 333 327 326 323 323 324 326 326 328 328 328 329 328 327 328 328 328 327 328 329
334 333 333 332 334 333 332 330 327 322 317 324 326 329 332 334 332 335 331 327 323 322 322 322 323 323 324 324 324 324 325 324 325 326 326 327 328 330
333 331 332 333 331 332 332 329 328 326 321 324 328 330 329 329 332 330 332 328 325 322 323 320 319 320 320 320 320 322 322 323 323 324 324 325 326 327
332 330 328 332 330 329 330 327 328 328 324 321 323 323 325 327 329 328 329 328 327 322 320 318 318 317 316 316 317 317 318 319 320 320 322 323 324 325
331 329 326 327 326 326 328 327 328 329 327 321 318 321 321 323 322 324 324 325 325 322 318 317 315 315 315 315 314 314 313 313 313 315 317 319 320 321
330 326 325 325 326 326 328 329 327 326 324 319 318 318 318 320 320 318 316 320 319 321 319 317 316 315 314 314 314 314 311 309 309 310 311 311 312 314
328 326 324 324 322 321 326 329 326 326 320 317 316 316 315 316 315 316 313 314 315 317 316 318 319 318 317 317 319 316 310 309 308 308 308 307 307 308
326 324 326 322 321 314 317 317 325 324 319 317 316 314 315 315 315 314 313 312 308 317 314 314 318 318 320 321 314 309 308 308 307 307 306 305 305 304
326 323 325 328 324 325 313 314 315 315 319 321 317 317 315 316 316 315 315 314 311 314 315 311 316 315 316 312 309 307 306 306 306 305 305 304 303 302
326 325 325 327 327 327 327 326 326 324 323 324 321 319 319 319 320 319 317 313 314 315 316 309 314 314 317 310 307 305 305 304 303 304 303 303 301 300
326 324 324 326 308 307 327 325 322 318 310 311 309 306 304 307 312 317 313 312 309 310 315 311 311 313 314 312 308 305 303 302 302 302 302 302 301 300
325 321 308 317 302 304 327 325 319 318 318 317 314 308 310 309 308 318 316 312 311 309 314 312 312 312 308 315 312 306 304 302 301 301 301 301 300 300
321 318 316 299 303 303 314 324 319 320 314 320 318 317 317 318 318 318 318 316 313 313 316 318 315 313 313 312 314 310 309 307 304 302 299 299 299 300
322 319 310 297 300 303 311 301 304 313 321 318 317 315 316 317 317 319 318 318 320 320 318 318 317 314 312 311 310 313 310 311 308 307 306 303 298 298
320 307 296 297 299 303 300 302 308 320 318 316 314 315 317 319 317 317 318 319 322 324 324 320 320 319 316 315 314 311 311 313 313 311 311 311 307 300
304 306 304 304 305 307 309 313 323 320 318 317 316 317 318 318 315 317 314 320 320 319 323 324 322 321 314 315 316 316 313 313 315 315 316 316 316 313
312 315 314 313 315 318 317 320 320 321 318 318 317 316 317 317 316 316 315 317 319 317 317 319 320 320 322 319 316 317 318 316 318 317 316 316 317 318
316 314 313 313 313 316 317 319 319 317 319 320 319 318 316 316 315 316 317 317 318 320 316 316 316 315 317 320 318 318 320 321 321 322 322 318 317 320
318 315 314 314 315 317 318 318 318 320 321 319 319 320 319 319 314 317 317 318 320 319 318 317 316 314 310 310 317 311 318 319 320 320 322 321 320 321
320 317 316 316 317 317 318 319 320 320 320 321 320 321 320 320 319 320 320 320 319 318 317 318 316 316 313 313 315 320 302 321 321 321 320 320 320 310
322 320 318 318 319 319 320 320 321 321 321 323 323 322 323 322 321 321 320 304 309 320 318 317 320 303 322 322 318 318 322 302 315 322 320 318 317 317
322 323 321 321 320 321 322 321 322 319 322 325 324 323 324 323 321 321 321 320 317 318 317 318 320 320 318 317 316 318 320 322 306 305 305 311 316 311
324 326 325 325 323 324 325 324 325 324 325 325 325 325 325 323 322 323 323 323 321 319 318 317 318 320 320 321 314 319 320 321 322 321 320 305 304 302
Wind_Speed
3 3 3 3 1 2 3 3 3 3 2 4 3 5 3 4 6 6 7 9 12 14 16 17 19 17 19 16 14 13 16 16 15 14 15 14 13 13
4 4 3 2 2 3 2 2 3 2 3 1 1 5 6 3 5 5 9 11 14 16 17 17 18 18 16 15 14 16 15 15 14 13 11 11 9 8
3 3 5 1 2 3 3 3 2 4 6 3 4 5 4 5 6 8 8 7 9 19 19 15 16 16 14 15 17 16 15 14 14 12 10 9 10 11
5 5 2 2 4 3 4 5 2 5 7 8 3 3 5 5 6 8 6 6 8 16 18 16 15 15 15 16 16 15 13 13 12 11 10 10 11 11
6 6 4 2 2 2 5 4 4 4 7 7 4 2 3 2 7 7 7 8 5 16 15 13 12 13 14 14 13 13 13 12 10 10 10 11 10 10
6 5 4 2 4 4 6 6 5 6 8 8 5 3 3 3 5 6 7 6 7 6 10 9 10 12 13 13 13 12 10 10 10 10 9 9 9 9
5 4 4 3 4 2 1 5 8 7 8 7 5 4 4 3 6 4 8 8 6 4 8 6 7 7 6 8 8 10 10 10 9 9 9 9 9 9
5 3 2 4 5 1 3 3 9 11 11 7 4 8 5 7 7 8 9 8 4 3 7 6 4 6 4 4 9 9 9 8 8 9 8 8 8 8
5 4 3 4 5 6 5 6 11 11 11 9 9 8 9 8 9 9 9 6 5 3 10 5 1 4 3 3 9 10 8 7 7 8 8 8 8 8
5 4 3 4 3 5 7 8 9 9 9 7 8 8 9 9 9 10 10 9 8 4 3 4 1 3 3 4 7 8 8 8 8 8 9 9 10 10
4 4 2 2 5 4 8 12 10 7 9 15 13 13 13 11 10 11 10 11 5 2 0 4 2 2 2 3 4 8 7 8 9 9 10 10 10 9
5 4 3 4 6 3 10 11 11 8 12 10 9 10 9 10 9 7 10 11 7 3 3 4 5 4 3 4 5 4 4 9 10 10 11 11 11 4
4 3 2 5 6 7 11 10 12 11 10 10 9 8 8 6 5 5 6 8 9 3 7 4 5 5 3 3 4 4 7 5 5 6 12 13 13 12
6 4 4 6 8 13 10 16 17 12 8 8 8 7 8 6 5 4 5 4 2 2 10 6 4 5 3 2 3 4 4 5 5 7 7 10 17 18
6 7 10 7 11 12 15 16 11 8 7 7 7 6 6 6 6 4 4 5 6 5 9 8 3 3 4 3 3 4 4 7 8 8 8 8 8 6
10 6 8 8 8 9 7 4 6 8 8 7 7 7 6 7 5 6 3 3 3 1 6 7 5 2 2 3 3 3 5 5 8 9 9 8 8 9
9 6 5 4 6 5 4 3 6 7 8 7 7 8 7 5 6 6 3 3 3 5 4 3 2 3 4 5 4 4 4 5 5 7 6 9 9 10
6 6 5 5 5 6 4 5 6 5 5 7 8 8 8 8 7 6 3 4 3 3 4 4 3 2 3 6 9 5 6 5 5 6 8 8 10 10
6 5 5 5 5 5 5 5 5 6 7 6 6 6 7 7 7 6 6 6 5 3 3 4 6 7 5 8 5 18 11 9 6 4 7 8 9 6
7 6 6 6 6 6 5 5 5 5 6 6 6 8 8 7 7 7 7 7 5 5 5 5 8 8 9 9 5 7 19 9 5 6 4 4 6 12
6 8 7 6 6 6 7 4 8 7 6 6 8 7 7 7 7 6 6 9 9 7 8 8 6 15 9 4 5 7 6 21 14 9 5 5 7 7
3 8 8 8 8 7 7 8 6 7 7 6 6 7 7 6 7 7 8 9 6 5 5 4 5 5 4 8 11 9 6 5 13 23 17 11 8 8
4 4 6 7 8 8 7 6 5 5 5 7 7 6 7 8 8 9 9 9 6 8 8 8 6 4 5 5 8 7 8 6 4 5 5 19 24 24
Wind_Direction
174 167 194 164 146 229 199 177 178 155 155 204 143 168 124 87 169 148 124 135 137 137 134 131 134 138 141 148 155 147 138 147 153 156 166 169 176 176
150 187 201 214 144 243 168 219 191 154 142 139 112 141 140 135 175 127 122 136 136 131 128 130 133 141 144 143 140 135 139 143 146 155 166 166 173 179
121 170 184 190 220 231 177 211 202 154 126 55 64 60 85 119 93 109 120 117 138 133 131 133 138 137 138 138 136 137 145 144 149 160 156 154 153 138
169 173 149 188 230 226 230 196 181 137 125 125 80 63 61 46 70 87 95 110 136 138 133 134 139 139 138 135 135 140 143 146 155 152 146 147 143 149
168 141 146 86 234 206 239 207 188 127 131 121 105 66 76 67 78 74 84 90 107 135 120 118 115 117 127 128 132 135 140 150 139 138 143 150 155 164
116 128 167 221 289 200 210 190 155 131 108 112 113 98 84 76 92 107 86 90 96 97 88 100 112 117 124 123 129 142 143 131 135 145 152 153 164 168
126 153 192 219 293 85 307 202 138 125 124 126 131 112 121 116 119 112 106 104 69 98 104 105 115 115 104 103 127 137 131 139 153 152 164 169 177 182
143 180 227 214 241 222 165 345 153 140 136 143 140 142 134 119 126 129 127 127 112 91 101 101 117 116 120 127 134 127 132 145 156 173 172 179 188 196
145 171 201 240 221 148 118 99 112 113 134 147 146 146 137 141 135 135 138 121 108 115 118 103 68 120 122 94 135 141 144 164 183 179 184 195 201 208
140 151 174 262 200 161 140 132 118 128 126 130 128 126 127 141 142 140 120 101 98 86 103 105 275 137 133 118 132 144 166 184 193 194 202 206 211 219
132 131 192 252 87 44 150 111 97 74 85 110 117 114 120 123 123 122 129 130 123 119 56 107 201 102 181 156 167 192 184 198 203 206 209 216 221 227
117 109 31 18 82 60 127 123 114 119 115 110 102 98 116 127 142 131 144 146 137 122 222 121 154 152 186 214 172 166 193 221 220 220 221 220 218 230
133 113 80 93 93 101 123 127 129 132 120 125 121 114 121 115 110 109 137 151 155 118 178 173 170 193 220 159 164 176 187 200 204 221 231 230 220 211
134 121 105 101 99 90 96 122 121 122 123 123 126 130 131 119 129 122 123 154 206 133 176 206 159 177 192 148 182 161 199 203 186 217 217 219 224 223
107 111 113 107 91 100 127 125 127 119 122 124 129 133 140 124 118 105 133 177 235 233 180 203 216 230 191 222 203 184 165 211 208 210 219 221 210 194
102 99 102 82 85 112 122 139 124 130 133 130 132 134 131 139 152 164 172 180 177 113 144 176 205 315 168 239 232 218 209 208 199 216 225 228 225 210
120 115 105 95 120 131 134 82 118 130 137 140 137 143 155 149 167 186 173 205 196 160 170 215 194 289 263 245 280 267 216 224 217 213 208 236 237 235
116 115 113 121 130 133 141 131 138 136 133 143 153 154 161 167 168 180 189 233 227 203 167 183 178 241 282 277 214 253 273 259 239 221 219 223 245 243
117 120 129 136 137 136 134 130 131 137 147 152 161 161 163 164 162 180 194 217 241 226 161 175 192 195 220 246 254 208 228 243 250 259 251 247 257 256
131 137 139 139 141 142 141 148 149 154 166 169 169 174 176 174 184 188 195 210 216 210 231 209 201 207 212 226 236 267 201 231 233 252 265 274 262 272
147 141 152 146 143 158 170 185 163 177 187 190 181 186 180 184 187 197 209 223 217 210 210 228 217 208 221 228 256 255 261 215 223 225 234 236 269 281
157 149 162 167 169 176 176 179 192 179 196 200 188 184 189 183 193 216 225 228 207 207 226 244 251 229 214 233 246 251 253 256 224 240 245 231 249 273
190 165 166 170 176 185 174 187 174 190 189 198 197 191 187 194 206 222 235 239 213 212 222 233 240 240 233 215 228 243 248 257 250 251 232 228 241 245